Regional Weather Roundup
Issued by NWS Mt. Holly, NJ

Home | Current Version | Previous Version | Text Only | Print | Product List | Glossary On
Versions: 1 2 3 4 5 6 7 8 9 10 11 12 13 14 15 16 17 18 19 20 21 22 23 24 25 26 27 28 29 30 31 32 33 34 35 36 37 38 39 40 41 42 43 44 45 46 47 48 49 50
000
ASUS41 KPHI 042011
RWRPHI

REGIONAL WEATHER ROUNDUP
NATIONAL WEATHER SERVICE MOUNT HOLLY NJ
400 PM EDT MON MAY 04 2015

NOTE:  "FAIR" INDICATES FEW OR NO CLOUDS BELOW 12,000 FEET WITH NO
SIGNIFICANT WEATHER AND/OR OBSTRUCTIONS TO VISIBILITY.

 * = STATION DOES NOT REPORT PRECIPITATION (E.G. RAIN, SNOW, ETC.)
        OR FOG.

NJZ015>026-042100-
SOUTHERN NEW JERSEY

CITY           SKY/WX    TMP DP  RH WIND       PRES   REMARKS
POMONA         MOSUNNY   80  46  30 S15G26    30.20F
RIO GRANDE*    SUNNY     81  46  30 S13G23      N/A
MILLVILLE      SUNNY     82  44  26 S8        30.20F
WRIGHTSTOWN    MOSUNNY   84  43  23 W17G23    30.13F
MOUNT HOLLY    MOSUNNY   82  44  26 VRB7      30.16F
TRENTON        MOSUNNY   83  43  24 SW17G24   30.15F

$$
NJZ001>014-042100-
NORTHERN NEW JERSEY

CITY           SKY/WX    TMP DP  RH WIND       PRES   REMARKS
SUSSEX         MOSUNNY   83  40  21 S13G21    30.12F
ANDOVER*         N/A     83  39  21 SW15G23   30.13F
MORRISTOWN     MOSUNNY   84  39  20 SW15G23   30.13F
NEWARK         MOSUNNY   84  38  19 SW16G25   30.13F
TETERBORO      MOSUNNY   84  38  19 SW14G26   30.11F
CALDWELL       MOSUNNY   84  38  19 S12G21    30.13F
SOMERVILLE     MOSUNNY   85  40  20 SW9G17    30.11F
ALLAIRE*       SUNNY     84  39  20 SW13G21   30.16F
TOMS RIVER*    PTSUNNY   84  39  20 SW15G23   30.17R

$$
PAZ043-044-047-054-055-060>062-066>071-042100-
EASTERN PENNSYLVANIA

CITY           SKY/WX    TMP DP  RH WIND       PRES   REMARKS
PHILADELPHIA   MOSUNNY   85  41  21 SW18G24   30.17F
NORTH PHILA    MOSUNNY   85  40  20 SW16G24   30.17F
BLUE BELL      SUNNY     82  43  24 SW8G21    30.16F
DOYLESTOWN     SUNNY     82  35  18 SW16G23   30.15F
QUAKERTOWN*    MOSUNNY   82  43  24 SW10G20   30.16F
POTTSTOWN      SUNNY     82  40  22 S10G22    30.17F
LANCASTER      MOSUNNY   83  43  24 SW17G24   30.14F
COATESVILLE    SUNNY     81  45  28 SW8       30.18F
READING        MOSUNNY   86  43  22 S18G29    30.12F
ALLENTOWN      PTSUNNY   82  42  24 SW12G20   30.13F
MOUNT POCONO   PTSUNNY   77  37  23 SW16G32   30.18F
HAZLETON       PTSUNNY   81  37  21 S9G18     30.18F
WILKES BARRE   SUNNY     84  38  19 W15G28    30.10F

$$
DEZALL-MDZ008-012-015-019-020-042100-
DELAWARE AND EASTERN MARYLAND

CITY           SKY/WX    TMP DP  RH WIND       PRES   REMARKS
WILMINGTON     SUNNY     82  43  25 SW13      30.18F
DOVER          MOSUNNY   84  48  28 SW8       30.19R
GEORGETOWN     SUNNY     82  37  20 S13G21    30.22F
EASTON         SUNNY     84  50  30 S15G22    30.24F
ABERDEEN       MOSUNNY   84  57  39 SW14      30.16F
PATUXENT       MOSUNNY   76  54  46 SE14      30.21F
OCEAN CITY     SUNNY     72  55  55 S10       30.24F
WALLOPS ISLAND SUNNY     78  50  37 S17       30.25F
CAMBRIDGE      SUNNY     81  43  26 S7G21     30.22F
SALISBURY      SUNNY     81  40  23 SW17G23   30.23F

$$
PAZ001-021-NYZ056-072-MDZ011-DCZ001-042100-
OTHER NEARBY LOCATIONS

CITY           SKY/WX    TMP DP  RH WIND       PRES   REMARKS
HARRISBURG     MOSUNNY   83  44  25 SW10G24   30.12F
STATE COLLEGE  MOSUNNY   82  45  26 SW14G20   30.12F
WILLIAMSPORT   MOSUNNY   86  39  19 SW14G24   30.07F
BINGHAMTON     MOSUNNY   79  39  23 SW9G18    30.10F
NEW YORK CITY  SUNNY     82  41  23 S8        30.16F
BALTIMORE      MOSUNNY   84  44  24 W13       30.16F
WASHINGTON DC  MOSUNNY   83  52  34 S13       30.17F

$$


USA.gov is the U.S. government's official web portal to all federal, state and local government web resources and services.